User: anonymous
Location: Unspecified
(0.0000°N, 0.0000°E)
Time: 14:24:03
(UTC+02:00)
Language:

H-2A R/B - Orbit

View from above orbital plane
View from above orbital plane
View from above satellite
View from above satellite

Ground track
Ground track

The orbit data is extracted from the following two-line orbital elements,

1 26899U 01038B   14108.78246493  .00001195  00000-0  70117-3 0  9583
2 26899 027.9041 170.2743 7140594 149.6655 340.8303 02.43634478108088
Epoch (UTC): 18 April 2014 18:46:44
Eccentricity: 0.7140594
inclination: 27.9041°
perigee height: 293 km
apogee height: 33610 km
right ascension of ascending node: 170.2743°
argument of perigee: 149.6655°
revolutions per day: 2.43634478
mean anomaly at epoch: 340.8303°
orbit number at epoch: 10808

The dashed part of the orbit path shows where the satellite is in the earth's shadow,  

DLR